[[{"header":{"parameterUnit":"m.s-1","parameterCategory":1,"la1":30.2991,"la2":30.254,"lo1":-89.0895,"lo2":-89.0444,"dy":0.0017,"dx":0.0017,"nx":28,"ny":28,"refTime":"2025-12-20T03:00:00:Z","depth":0,"parameterNumber":2,"parameterNumberName":"U-component_of_WINDS"},"data":[0,0,0,0,0,0,0,0,0,0,0,0,0,0,0,0,0,0,0,0,0,0,0,0,0,0,0,0,0,0,0,0,0,0,0,0,0,0,0,0,0,0,0,0,0,0,0,0,0,0,0,0,0,0,0,0,0,0,-2.4345,-2.4344,0,-2.427,-2.4269,-2.4268,-2.4185,-2.4183,-2.4182,-2.4181,-2.4104,-2.4104,-2.4103,0,0,0,0,0,0,0,0,0,0,0,0,0,-2.4414,-2.4414,-2.4345,-2.4344,-2.4343,-2.427,-2.4269,-2.4268,-2.4185,-2.4183,-2.4182,-2.418,-2.4105,-2.4104,-2.4103,0,0,0,0,0,0,0,0,0,0,0,0,0,-2.4367,-2.4413,-2.4345,-2.4293,-2.4287,-2.4271,-2.4269,-2.4268,-2.4185,-2.4183,-2.4181,-2.418,-2.4105,-2.4104,-2.4102,-2.4131,0,0,-2.4098,-2.4098,0,0,0,0,0,0,0,0,-2.4369,-2.4364,-2.4301,-2.4296,-2.429,-2.4235,-2.4266,-2.4222,-2.4186,-2.4224,-2.4181,-2.4179,-2.4149,-2.4144,-2.4134,-2.4128,-2.4124,-2.4098,-2.4097,-2.4097,-2.4096,0,0,0,0,0,0,0,-2.4373,-2.4367,-2.4315,-2.43,-2.4294,-2.4273,-2.4264,-2.4257,-2.4198,-2.422,-2.4214,-2.4206,-2.4146,-2.4136,-2.4132,-2.4123,-2.4098,-2.4097,-2.4096,-2.4096,-2.4135,-2.4137,0,0,0,0,0,0,-2.4384,-2.437,-2.4318,-2.4313,-2.4326,-2.4273,-2.4263,-2.4254,-2.4198,-2.4187,-2.4208,-2.4203,-2.4139,-2.4133,-2.4129,-2.4157,-2.4097,-2.4096,-2.4095,-2.4133,-2.4136,-2.4138,0,0,0,0,0,0,-2.4386,-2.438,-2.4321,-2.434,-2.4331,-2.4274,-2.4265,-2.4254,-2.4244,-2.4188,-2.4177,-2.4209,-2.4137,-2.4131,-2.4131,-2.4153,-2.4095,-2.4094,-2.4131,-2.4134,-2.4137,-2.4215,0,0,0,0,0,0,-2.4388,-2.4381,-2.4392,-2.4341,-2.433,-2.4324,-2.4266,-2.4254,-2.4242,-2.4234,-2.4186,-2.4176,-2.4135,-2.4133,-2.413,-2.415,-2.4093,-2.4129,-2.4132,-2.4136,-2.421,-2.4221,-2.4229,0,0,0,0,0,-2.4391,-2.4417,-2.4393,-2.4387,-2.4342,-2.4326,-2.432,-2.4272,-2.4244,-2.4253,-2.4218,-2.4178,-2.4152,-2.4134,-2.4129,-2.415,-2.4127,-2.4131,-2.4135,-2.4206,-2.4219,-2.4229,0,0,0,0,0,0,-2.4472,-2.441,-2.4382,-2.4392,-2.4365,-2.4312,-2.4322,-2.4287,-2.4267,-2.426,-2.4202,-2.4192,-2.4199,-2.4175,-2.4156,-2.4174,-2.4134,-2.4137,-2.4189,-2.4201,-2.421,-2.4214,-2.4092,0,0,0,0,0,-2.4492,-2.4484,-2.443,-2.4444,-2.4432,-2.438,-2.4371,-2.4337,-2.4306,-2.4294,-2.4259,-2.423,-2.4216,-2.4207,-2.4191,-2.4207,-2.4195,-2.4219,-2.4229,-2.4237,-2.4239,-2.4245,-2.4254,-2.4151,-2.4151,-2.4151,0,0,-2.4531,-2.4496,-2.4495,-2.446,-2.4434,-2.4427,-2.4371,-2.4366,-2.436,-2.4293,-2.4291,-2.4264,-2.4229,-2.4237,-2.4239,-2.4217,-2.4266,-2.4242,-2.4249,-2.4247,-2.425,-2.426,-2.4269,-2.4154,-2.4153,-2.4153,0,0,-2.4599,-2.4572,-2.4581,-2.4557,-2.4519,-2.4484,-2.4487,-2.4439,-2.4418,-2.4415,-2.4365,-2.4357,-2.4333,-2.431,-2.4294,-2.4354,-2.4315,-2.435,-2.4398,-2.4404,-2.4412,-2.4419,-2.4438,-2.4446,-2.4354,-2.4354,-2.4354,0,-2.4652,-2.464,-2.459,-2.4587,-2.4573,-2.4513,-2.452,-2.45,-2.4459,-2.445,-2.4427,-2.4395,-2.4367,-2.4368,-2.4383,-2.4373,-2.4373,-2.4354,-2.4415,-2.4421,-2.4427,-2.4445,-2.4452,-2.4358,-2.4358,-2.4357,-2.4357,0,-2.4706,-2.4699,-2.471,-2.4672,-2.4659,-2.4662,-2.4612,-2.4605,-2.4572,-2.454,-2.4537,-2.4501,-2.4476,-2.4474,-2.4442,-2.447,-2.4458,-2.4426,-2.4383,-2.4442,-2.4457,-2.4464,-2.4365,-2.4363,-2.4362,-2.4361,0,0,-2.4822,-2.4756,-2.4761,-2.4742,-2.4697,-2.4689,-2.469,-2.4665,-2.4659,-2.4634,-2.4631,-2.4613,-2.4583,-2.4566,-2.4531,-2.4537,-2.4583,-2.4503,-2.4501,-2.4517,-2.461,-2.4633,-2.4641,-2.4559,-2.456,-2.4561,-2.4612,0,-2.488,-2.4876,-2.4831,-2.4839,-2.483,-2.4774,-2.4774,-2.4746,-2.4716,-2.4704,-2.4671,-2.4658,-2.462,-2.4609,-2.4612,-2.4577,-2.4601,-2.4573,-2.4554,-2.4554,-2.4562,-2.465,-2.4674,-2.4724,-2.4618,-2.4619,-2.462,0,-2.4946,-2.4924,-2.4932,-2.4885,-2.488,-2.4881,-2.4854,-2.4844,-2.4811,-2.4788,-2.477,-2.473,-2.4726,-2.4689,-2.4682,-2.4664,-2.4654,-2.4636,-2.4636,-2.4631,-2.4589,-2.4644,-2.4739,-2.4746,-2.4629,-2.4628,-2.4628,0,-2.5027,-2.4999,-2.5,-2.4986,-2.4933,-2.4934,-2.4912,-2.4877,-2.4865,-2.4842,-2.4833,-2.481,-2.4797,-2.478,-2.4735,-2.4712,-2.4733,-2.4692,-2.4713,-2.4714,-2.4718,-2.4718,-2.481,-2.4716,-2.4716,-2.4716,-2.4716,0,-2.5095,-2.5101,-2.5035,-2.5035,-2.5041,-2.4989,-2.4996,-2.4968,-2.4938,-2.4931,-2.4882,-2.4876,-2.4819,-2.4807,-2.4772,-2.4771,-2.4766,-2.4747,-2.4737,-2.475,-2.4752,-2.4741,-2.4735,-2.4718,-2.4717,-2.4717,-2.4717,0,-2.5185,-2.5141,-2.5137,-2.5087,-2.5075,-2.5081,-2.5037,-2.5035,-2.5003,-2.4995,-2.499,-2.4939,-2.4922,-2.4877,-2.4849,-2.4825,-2.4833,-2.4816,-2.4844,-2.4837,-2.486,-2.4858,-2.4946,-2.4954,-2.4858,-2.4859,-2.486,0,-2.523,-2.5233,-2.5183,-2.5175,-2.5155,-2.5143,-2.513,-2.508,-2.5068,-2.5031,-2.5033,-2.5013,-2.4993,-2.4969,-2.4929,-2.4907,-2.4888,-2.4921,-2.4884,-2.4897,-2.4886,-2.4885,-2.4884,-2.4928,-2.4929,-2.493,-2.4931,0,-2.5314,-2.5292,-2.5275,-2.5251,-2.5237,-2.5215,-2.5191,-2.5188,-2.5131,-2.5121,-2.5103,-2.5088,-2.5059,-2.5039,-2.501,-2.4987,-2.4949,-2.4944,-2.4947,-2.4958,-2.4973,-2.4963,-2.4863,-2.4941,-2.494,-2.4939,-2.4939,-2.4938,-2.5381,-2.5381,-2.5345,-2.5328,-2.5305,-2.5283,-2.5278,-2.5245,-2.5229,-2.5201,-2.5173,-2.5158,-2.5124,-2.5082,-2.5062,-2.5049,-2.5029,-2.5035,-2.5035,-2.5037,-2.5042,-2.4978,-2.5044,-2.5043,-2.5043,-2.5043,-2.5043,0,-2.546,-2.5434,-2.5419,-2.5387,-2.5373,-2.534,-2.5311,-2.5302,-2.5289,-2.5261,-2.5243,-2.5222,-2.5202,-2.5161,-2.5137,-2.5135,-2.5117,-2.513,-2.5128,-2.5123,-2.5062,-2.506,-2.5145,-2.5145,-2.5145,-2.5145,-2.5145,-2.5145,-2.5499,-2.5497,-2.5471,-2.5456,-2.543,-2.5415,-2.5401,-2.5381,-2.5358,-2.5337,-2.532,-2.5293,-2.526,-2.5233,-2.5213,-2.5201,-2.5194,-2.5212,-2.5195,-2.5138,-2.5128,-2.5118,-2.5116,-2.5211,-2.5212,-2.5256,-2.5257,-2.5257]},{"header":{"parameterUnit":"m.s-1","parameterCategory":1,"la1":30.2991,"la2":30.254,"lo1":-89.0895,"lo2":-89.0444,"dy":0.0017,"dx":0.0017,"nx":28,"ny":28,"refTime":"2025-12-20T03:00:00:Z","depth":0,"parameterNumber":3,"parameterNumberName":"V-component_of_WINDS"},"data":[0,0,0,0,0,0,0,0,0,0,0,0,0,0,0,0,0,0,0,0,0,0,0,0,0,0,0,0,0,0,0,0,0,0,0,0,0,0,0,0,0,0,0,0,0,0,0,0,0,0,0,0,0,0,0,0,0,0,1.1683,1.1683,0,1.1717,1.1717,1.1717,1.1721,1.172,1.172,1.172,1.1752,1.1754,1.1755,0,0,0,0,0,0,0,0,0,0,0,0,0,1.1619,1.162,1.1683,1.1683,1.1683,1.1717,1.1717,1.1717,1.1721,1.172,1.172,1.1719,1.1752,1.1753,1.1755,0,0,0,0,0,0,0,0,0,0,0,0,0,1.1649,1.1621,1.1682,1.1689,1.169,1.1716,1.1717,1.1718,1.1721,1.172,1.172,1.1719,1.1752,1.1753,1.1755,1.1777,0,0,1.1761,1.1761,0,0,0,0,0,0,0,0,1.1647,1.1651,1.1688,1.1689,1.169,1.1714,1.1707,1.1737,1.1721,1.1709,1.172,1.1719,1.174,1.1743,1.175,1.1778,1.178,1.1761,1.1762,1.1763,1.1763,0,0,0,0,0,0,0,1.1645,1.165,1.1696,1.1688,1.1689,1.169,1.1694,1.1712,1.1727,1.171,1.171,1.1714,1.174,1.1748,1.1751,1.178,1.1761,1.1762,1.1763,1.1764,1.1829,1.183,0,0,0,0,0,0,1.1642,1.1648,1.1695,1.1697,1.1667,1.1691,1.1696,1.1707,1.1727,1.1729,1.1715,1.1714,1.1746,1.1749,1.1752,1.178,1.1763,1.1764,1.1765,1.1828,1.1829,1.183,0,0,0,0,0,0,1.1641,1.1646,1.1693,1.1673,1.1679,1.1693,1.1705,1.1708,1.1716,1.173,1.1733,1.172,1.1745,1.175,1.1771,1.1781,1.1765,1.1767,1.1828,1.1829,1.183,1.1835,0,0,0,0,0,0,1.1639,1.1646,1.1655,1.1673,1.168,1.1712,1.1706,1.1709,1.1719,1.1719,1.1736,1.1739,1.1745,1.1768,1.1773,1.1783,1.1768,1.1827,1.1828,1.1829,1.1834,1.1836,1.1838,0,0,0,0,0,1.1637,1.1654,1.1655,1.1661,1.1691,1.1713,1.1717,1.1724,1.172,1.1729,1.1738,1.1738,1.1779,1.177,1.1776,1.1787,1.1826,1.1828,1.1829,1.1833,1.1836,1.1838,0,0,0,0,0,0,1.1636,1.1657,1.1658,1.1682,1.1696,1.1713,1.1725,1.1727,1.1742,1.1741,1.1749,1.1753,1.1774,1.1782,1.1773,1.1809,1.1802,1.1805,1.1804,1.1806,1.1808,1.1806,1.177,0,0,0,0,0,1.1638,1.1655,1.1672,1.1691,1.1698,1.171,1.172,1.1725,1.1739,1.1745,1.1756,1.177,1.1786,1.1796,1.1811,1.1835,1.1839,1.1845,1.1847,1.1849,1.1851,1.1865,1.1869,1.1835,1.1835,1.1835,0,0,1.1644,1.1657,1.1667,1.1691,1.1703,1.172,1.1715,1.1733,1.1745,1.1747,1.1769,1.1778,1.1793,1.1816,1.1827,1.1824,1.1861,1.185,1.1852,1.1853,1.1867,1.187,1.1873,1.1836,1.1836,1.1835,0,0,1.1662,1.1674,1.1692,1.1704,1.1721,1.1729,1.1734,1.1752,1.1758,1.178,1.1782,1.1796,1.1824,1.1835,1.1845,1.1868,1.187,1.1873,1.1883,1.1897,1.19,1.1902,1.1912,1.1916,1.1875,1.1875,1.1875,0,1.1667,1.1693,1.1701,1.1719,1.173,1.1733,1.1752,1.1763,1.1784,1.1792,1.1788,1.1823,1.1833,1.186,1.1866,1.1873,1.1878,1.1872,1.1899,1.1902,1.1904,1.1913,1.1917,1.1876,1.1876,1.1876,1.1875,0,1.1698,1.1716,1.1728,1.1751,1.1763,1.1781,1.1791,1.1803,1.1806,1.1815,1.1837,1.185,1.1869,1.1875,1.1878,1.1902,1.19,1.1897,1.1891,1.1908,1.1917,1.192,1.1876,1.1876,1.1876,1.1876,0,0,1.1718,1.1744,1.1749,1.176,1.1779,1.1793,1.1811,1.1831,1.1841,1.1855,1.1871,1.1894,1.1893,1.1903,1.1908,1.192,1.1939,1.1916,1.1916,1.1921,1.1968,1.1971,1.1975,1.194,1.194,1.1941,1.1967,0,1.174,1.1774,1.1782,1.1811,1.1828,1.1831,1.1848,1.1861,1.187,1.1885,1.1894,1.1911,1.1906,1.1913,1.1925,1.1935,1.1949,1.1932,1.1955,1.1956,1.1953,1.198,1.1983,1.2007,1.1971,1.1971,1.1972,0,1.1771,1.1787,1.1818,1.1837,1.1845,1.1859,1.1878,1.1892,1.1908,1.1913,1.1926,1.1929,1.1948,1.194,1.1967,1.1955,1.1965,1.1971,1.1972,1.1976,1.1966,1.1986,1.2015,1.2019,1.1977,1.1977,1.1976,0,1.1784,1.1814,1.1837,1.1845,1.1867,1.1877,1.1887,1.1902,1.1914,1.193,1.1937,1.1955,1.1965,1.1978,1.1986,1.1979,1.2013,1.2005,1.2019,1.2019,1.2027,1.2026,1.206,1.203,1.203,1.203,1.203,0,1.1809,1.1828,1.1843,1.1857,1.1879,1.1887,1.1909,1.1918,1.1932,1.1948,1.1951,1.1966,1.1975,1.1991,1.1997,1.2019,1.2023,1.2028,1.203,1.2029,1.2029,1.2036,1.2036,1.2031,1.2031,1.2031,1.2031,0,1.1828,1.1838,1.1864,1.1883,1.1888,1.1903,1.192,1.1933,1.1942,1.1962,1.1967,1.198,1.1999,1.2009,1.2032,1.2036,1.2062,1.2061,1.2057,1.2058,1.2072,1.2071,1.2113,1.2119,1.2084,1.2084,1.2085,0,1.1844,1.1859,1.188,1.1891,1.1901,1.1919,1.1931,1.194,1.1953,1.1972,1.1984,1.2003,1.202,1.205,1.2061,1.208,1.2081,1.2094,1.2084,1.2082,1.2083,1.2083,1.2085,1.2096,1.2097,1.2097,1.2097,0,1.1872,1.1876,1.1894,1.1914,1.1928,1.1944,1.1959,1.1968,1.1979,1.1993,1.2013,1.2026,1.2051,1.207,1.2089,1.2099,1.21,1.21,1.2105,1.2105,1.2102,1.2105,1.2064,1.21,1.2099,1.2099,1.2099,1.2099,1.1891,1.1905,1.1922,1.1942,1.1955,1.1969,1.1984,1.1994,1.2011,1.2033,1.2037,1.2059,1.2074,1.21,1.211,1.2128,1.2124,1.213,1.2132,1.2134,1.2136,1.2098,1.2131,1.2131,1.2131,1.2131,1.213,0,1.192,1.1932,1.195,1.1972,1.1987,1.1988,1.2005,1.2018,1.2037,1.2052,1.2069,1.2092,1.2112,1.2124,1.2144,1.2155,1.2157,1.216,1.216,1.2163,1.2137,1.2132,1.2159,1.2159,1.2159,1.2159,1.2159,1.2159,1.1937,1.1962,1.1969,1.2,1.2011,1.2033,1.2043,1.2057,1.2069,1.2095,1.2112,1.212,1.2135,1.2155,1.2173,1.2176,1.2184,1.2188,1.2192,1.2167,1.2164,1.2162,1.2157,1.2189,1.219,1.2217,1.2217,1.2217]}]]